Weather History for Imperial, NE

Change the Weather History Date:

Friday, December 30, 2011

  Actual Average Record
Temperature  
Mean Temperature 42 °F 28 °F  
Max Temperature 55 °F 40 °F 70 °F (1904)
Min Temperature 28 °F 15 °F -16 °F (1990)
Degree Days  
Heating Degree Days 23 38  
Month to date heating degree days 1032 1100  
Cooling Degree Days 0 0  
Month to date cooling degree days 0 0  
Year to date cooling degree days 1096 963  
Moisture  
Dew Point 23 °F    
Average Humidity 55    
Maximum Humidity 75    
Minimum Humidity 28    
Precipitation  
Precipitation 0.00 in 0.02 in 0.33 in (1994)
Sea Level Pressure  
Sea Level Pressure 29.88 in    
Wind  
Wind Speed 10 mph (WSW)    
Max Wind Speed 16 mph    
Max Gust Speed 25 mph    
Visibility 10 miles    
Events      
T = Trace of Precipitation, MM = Missing Value Source: NWS Daily Summary

Daily Weather History Graph

Daily Weather History Graph

Search for Another Location

Airport:

Trip Planner

Search our weather history database for the weather conditions in past years. The results will help you decide how hot, cold, wet, or windy it might be!

Date:

Astronomy

Dec. 30, 2011 Rise Set
Actual Time 7:09 AM MST 4:28 PM MST
Civil Twilight 6:38 AM MST 4:59 PM MST
Nautical Twilight 6:04 AM MST 5:33 PM MST
Astronomical Twilight 5:31 AM MST 6:06 PM MST
Moon 10:28 AM MST (12/30) 11:07 PM MST (12/30)
Length of Visible Light 10h 20m
Length of Day
9h 18m
Waxing Crescent, 36% of the Moon is Illuminated
Dec 30
Waxing Crescent
Dec 31
First Quarter
Jan 9
Full
Jan 16
Last Quarter
Jan 23
New

Hourly Weather History & Observations

Time (MST) Temp. Windchill Dew Point Humidity Pressure Visibility Wind Dir Wind Speed Gust Speed Precip Events Conditions
12:53 AM 37.9 °F 29.2 °F 21.9 °F 53% 29.90 in 10.0 mi WNW 15.0 mph - N/A   Clear
1:53 AM 37.0 °F 28.9 °F 21.0 °F 52% 29.91 in 10.0 mi WNW 12.7 mph - N/A   Clear
2:53 AM 32.0 °F 24.8 °F 23.0 °F 69% 29.96 in 10.0 mi WNW 8.1 mph - N/A   Clear
3:53 AM 32.0 °F 22.5 °F 23.0 °F 69% 29.93 in 10.0 mi WNW 12.7 mph - N/A   Clear
4:53 AM 33.1 °F 24.4 °F 21.9 °F 64% 29.95 in 10.0 mi WNW 11.5 mph - N/A   Clear
5:53 AM 28.9 °F 21.1 °F 21.0 °F 72% 29.97 in 10.0 mi WNW 8.1 mph - N/A   Clear
6:53 AM 28.9 °F 19.2 °F 21.0 °F 72% 30.00 in 10.0 mi WNW 11.5 mph - N/A   Clear
7:53 AM 30.0 °F 22.4 °F 21.0 °F 69% 30.00 in 10.0 mi WNW 8.1 mph - N/A   Clear
8:53 AM 35.1 °F 28.6 °F 23.0 °F 61% 30.01 in 10.0 mi West 8.1 mph - N/A   Clear
9:53 AM 44.1 °F 39.0 °F 21.9 °F 42% 29.99 in 10.0 mi West 9.2 mph - N/A   Clear
10:53 AM 48.0 °F - 21.0 °F 34% 29.96 in 10.0 mi West 6.9 mph - N/A   Clear
11:53 AM 50.0 °F - 19.9 °F 31% 29.92 in 10.0 mi West 8.1 mph - N/A   Clear
12:53 PM 51.1 °F - 21.0 °F 31% 29.88 in 10.0 mi SSW 3.5 mph - N/A   Clear
1:53 PM 53.1 °F - 21.0 °F 29% 29.85 in 10.0 mi South 5.8 mph - N/A   Clear
2:53 PM 54.0 °F - 21.0 °F 28% 29.84 in 10.0 mi SE 11.5 mph - N/A   Clear
3:53 PM 50.0 °F - 21.9 °F 33% 29.83 in 10.0 mi SE 8.1 mph - N/A   Clear
4:53 PM 44.1 °F 38.6 °F 23.0 °F 43% 29.82 in 10.0 mi SSE 10.4 mph - N/A   Clear
5:53 PM 43.0 °F 38.8 °F 24.1 °F 47% 29.81 in 10.0 mi South 6.9 mph - N/A   Clear
6:53 PM 43.0 °F 37.7 °F 26.1 °F 51% 29.80 in 10.0 mi SSW 9.2 mph - N/A   Clear
7:53 PM 39.0 °F 33.4 °F 26.1 °F 60% 29.78 in 10.0 mi SW 8.1 mph - N/A   Clear
8:53 PM 36.0 °F 29.0 °F 26.1 °F 67% 29.76 in 10.0 mi SW 9.2 mph - N/A   Clear
9:53 PM 32.0 °F - 25.0 °F 75% 29.75 in 10.0 mi Calm Calm - N/A   Clear
10:53 PM 30.0 °F 25.2 °F 25.0 °F 82% 29.73 in 10.0 mi SW 4.6 mph - N/A   Clear
11:53 PM 30.0 °F - 25.0 °F 82% 29.70 in 10.0 mi Calm Calm - N/A   Clear